OM3WYM-13 Weather Reports


time (UTC)temp
C
wind
direction
speed
KPH
gust
KPH
rain 1hr
cm
rain 24hr
cm
rain mn
cm
humidity
%
barometer
mb
20260503195008 10 0.0 0.0 0.00 0.00 0.00 61 1018.9
20260503194008 10 0.0 0.0 0.00 0.00 0.00 60 1019.0
20260503193008 10 0.0 0.0 0.00 0.00 0.00 59 1018.9
20260503192008 11 0.0 0.0 0.00 0.00 0.00 58 1018.9
20260503191008 11 0.0 0.0 0.00 0.00 0.00 56 1018.8
20260503190008 11 0.0 0.0 0.00 0.00 0.00 55 1018.6
20260503185008 12 0.0 0.0 0.00 0.00 0.00 53 1018.4
20260503184008 12 0.0 0.0 0.00 0.00 0.00 52 1018.4
20260503183008 13 0.0 0.0 0.00 0.00 0.00 49 1018.2
20260503182008 13 0.0 0.0 0.00 0.00 0.00 47 1018.1
20260503181008 15 0.0 0.0 0.00 0.00 0.00 45 1017.9
20260503180008 15 0.0 0.0 0.00 0.00 0.00 42 1017.7
20260503175008 16 0.0 0.0 0.00 0.00 0.00 40 1017.4
20260503174008 17 0.0 0.0 0.00 0.00 0.00 38 1017.3
20260503173008 18 0.0 0.0 0.00 0.00 0.00 36 1017.2
20260503172008 19 0.0 0.0 0.00 0.00 0.00 33 1017.0
20260503171008 21 0.0 0.0 0.00 0.00 0.00 30 1016.8
20260503151008 26 0.0 0.0 0.00 0.00 0.00 22 1016.8
20260503131009 24 0.0 0.0 0.00 0.00 0.00 24 1018.5
20260503081008 15 0.0 0.0 0.00 0.00 0.00 38 1022.4
20260503072008 12 0.0 0.0 0.00 0.00 0.00 44 1023.0
20260503071008 12 0.0 0.0 0.00 0.00 0.00 46 1023.0
20260503055008 7 0.0 0.0 0.00 0.00 0.00 69 1023.9
20260503054008 6 0.0 0.0 0.00 0.00 0.00 73 1024.0
20260503053008 5 0.0 0.0 0.00 0.00 0.00 76 1024.0
20260503052008 5 0.0 0.0 0.00 0.00 0.00 80 1024.1
20260503051008 4 0.0 0.0 0.00 0.00 0.00 81 1024.2
20260503050008 3 0.0 0.0 0.00 0.00 0.00 83 1024.4
20260503045008 3 0.0 0.0 0.00 0.00 0.00 85 1024.4
20260503044008 2 0.0 0.0 0.00 0.00 0.00 87 1024.5
20260503043008 2 0.0 0.0 0.00 0.00 0.00 88 1024.6
20260503042008 2 0.0 0.0 0.00 0.00 0.00 90 1024.5
20260503041009 1 0.0 0.0 0.00 0.00 0.00 91 1024.5
20260503040008 1 0.0 0.0 0.00 0.00 0.00 92 1024.3
20260503035008 1 0.0 0.0 0.00 0.00 0.00 92 1024.2
20260503034008 1 0.0 0.0 0.00 0.00 0.00 93 1024.3
20260503033009 1 0.0 0.0 0.00 0.00 0.00 94 1024.3
20260503032009 1 0.0 0.0 0.00 0.00 0.00 94 1024.2
20260503031008 1 0.0 0.0 0.00 0.00 0.00 91 1024.3
20260503030008 1 0.0 0.0 0.00 0.00 0.00 89 1024.2
20260503025008 1 0.0 0.0 0.00 0.00 0.00 88 1024.0
20260503024008 1 0.0 0.0 0.00 0.00 0.00 88 1024.0
20260503023008 1 0.0 0.0 0.00 0.00 0.00 87 1023.9
20260503022008 1 0.0 0.0 0.00 0.00 0.00 87 1023.9
20260503021008 1 0.0 0.0 0.00 0.00 0.00 87 1023.8
20260503020008 1 0.0 0.0 0.00 0.00 0.00 87 1023.7
20260503015008 1 0.0 0.0 0.00 0.00 0.00 86 1023.6
20260503014008 2 0.0 0.0 0.00 0.00 0.00 84 1023.5
20260503013009 2 0.0 0.0 0.00 0.00 0.00 84 1023.5
20260503012009 2 0.0 0.0 0.00 0.00 0.00 84 1023.6
20260503011009 2 0.0 0.0 0.00 0.00 0.00 85 1023.6
20260503010008 2 0.0 0.0 0.00 0.00 0.00 83 1023.6
20260503005009 2 0.0 0.0 0.00 0.00 0.00 81 1023.6
20260503004008 2 0.0 0.0 0.00 0.00 0.00 80 1023.6
20260503003008 2 0.0 0.0 0.00 0.00 0.00 80 1023.6
20260503002008 3 0.0 0.0 0.00 0.00 0.00 80 1023.6
20260503001008 2 0.0 0.0 0.00 0.00 0.00 80 1023.6
20260503000008 3 0.0 0.0 0.00 0.00 0.00 79 1023.6
20260502235008 3 0.0 0.0 0.00 0.00 0.00 79 1023.6
20260502234008 3 0.0 0.0 0.00 0.00 0.00 78 1023.7
20260502233008 3 0.0 0.0 0.00 0.00 0.00 77 1023.7
20260502232008 3 0.0 0.0 0.00 0.00 0.00 75 1023.9
20260502231008 3 0.0 0.0 0.00 0.00 0.00 76 1023.8
20260502230008 3 0.0 0.0 0.00 0.00 0.00 75 1023.8
20260502225008 4 0.0 0.0 0.00 0.00 0.00 73 1023.8
20260502224008 4 0.0 0.0 0.00 0.00 0.00 73 1023.7
20260502223008 4 0.0 0.0 0.00 0.00 0.00 71 1023.7
20260502222008 5 0.0 0.0 0.00 0.00 0.00 71 1023.7
20260502221008 5 0.0 0.0 0.00 0.00 0.00 70 1023.7
20260502220008 5 0.0 0.0 0.00 0.00 0.00 69 1023.6
20260502215008 5 0.0 0.0 0.00 0.00 0.00 68 1023.6
20260502214008 5 0.0 0.0 0.00 0.00 0.00 67 1023.5
20260502213008 6 0.0 0.0 0.00 0.00 0.00 66 1023.5
20260502212008 6 0.0 0.0 0.00 0.00 0.00 65 1023.5
20260502211009 6 0.0 0.0 0.00 0.00 0.00 64 1023.5
20260502210008 6 0.0 0.0 0.00 0.00 0.00 63 1023.5
20260502205008 7 0.0 0.0 0.00 0.00 0.00 62 1023.4
20260502204009 7 0.0 0.0 0.00 0.00 0.00 61 1023.5
20260502203008 7 0.0 0.0 0.00 0.00 0.00 60 1023.4
20260502202008 8 0.0 0.0 0.00 0.00 0.00 59 1023.3
20260502201009 8 0.0 0.0 0.00 0.00 0.00 57 1023.2
20260502200008 8 0.0 0.0 0.00 0.00 0.00 56 1023.0